Voltar ao catálogo

HULIANWANG DIGUI-121

AtivoComunicaçõesLEO
NORAD 67061·PAYLOAD·🇨🇳 China

Lançado Dec 11, 2025 de Wenchang Space Launch Site

Loading…

Próximas Passagens (próximas 24 horas)

TLE

AtualizadoSource: Space-Track

Época: Sep 14, 2026, 20:05 UTC

1 67061U 25295C   26257.83724554 -.00000119  00000-0  11351-4 0  9990
2 67061  50.0002  64.0922 0000820  61.3405 298.7549 13.29326924 37422

Acompanhe HULIANWANG DIGUI-121 em tempo real com AllMySat

Download on the App Store